VLG3SH LEBL-LIRQ

Flight info

Callsign VLG3SH
Flight time 1h 10m
Altitude 34000
Route AGENA DCT BODEQ DCT LUMAS/N0428F300 DCT UNANA DCT STP DCT RAPED DCT PIGOS DCT EKSID DCT NOSTA DCT EGHIN DCT KALMO/N0429F330 DCT MIVKI/N0362F190 M730 BEROK Y138 GAPMI
Aircraft A319/M-SDE3FGHIRWY/LB1

Departure

Time 2026-05-07 10:31
Airport Josep Tarradellas Barcelona-El Prat Airport (LEBL)

Arrival

Time 2026-05-07 11:42
Airport Florence Airport, Peretola (LIRQ)
Time Latitude Longitude Altitude Speed Heading
2026-05-07 10:18 41.29284 2.07862 -25 ft 0 kts 65°
2026-05-07 10:25 41.29285 2.07864 3 ft 2 kts 65°
2026-05-07 10:25 41.29291 2.07882 4 ft 5 kts 65°
2026-05-07 10:25 41.29332 2.07903 3 ft 9 kts 340°
2026-05-07 10:26 41.29403 2.07860 3 ft 13 kts 339°
2026-05-07 10:26 41.29468 2.07926 4 ft 14 kts 66°
2026-05-07 10:26 41.29514 2.08061 4 ft 18 kts 65°
2026-05-07 10:26 41.29559 2.08192 3 ft 14 kts 65°
2026-05-07 10:27 41.29513 2.08296 3 ft 17 kts 155°
2026-05-07 10:27 41.29393 2.08367 3 ft 20 kts 156°
2026-05-07 10:27 41.29269 2.08442 3 ft 20 kts 155°
2026-05-07 10:27 41.29137 2.08421 4 ft 20 kts 199°
2026-05-07 10:28 41.29006 2.08362 3 ft 20 kts 199°
2026-05-07 10:28 41.28874 2.08300 3 ft 20 kts 199°
2026-05-07 10:28 41.28739 2.08239 3 ft 21 kts 198°
2026-05-07 10:28 41.28648 2.08108 3 ft 21 kts 246°
2026-05-07 10:29 41.28591 2.07942 3 ft 16 kts 245°
2026-05-07 10:29 41.28544 2.07804 3 ft 17 kts 245°
2026-05-07 10:29 41.28495 2.07662 4 ft 17 kts 245°
2026-05-07 10:30 41.28401 2.07387 3 ft 12 kts 244°
2026-05-07 10:30 41.28335 2.07339 4 ft 12 kts 183°
2026-05-07 10:30 41.28264 2.07378 6 ft 10 kts 153°
2026-05-07 10:30 41.28228 2.07439 8 ft 9 kts 74°
2026-05-07 10:31 41.28257 2.07523 10 ft 15 kts 65°
2026-05-07 10:31 41.28403 2.07949 9 ft 90 kts 65°
2026-05-07 10:31 41.28758 2.08981 58 ft 147 kts 66°
2026-05-07 10:31 41.29141 2.10225 821 ft 147 kts 80°
2026-05-07 10:32 41.29139 2.11599 1452 ft 159 kts 96°
2026-05-07 10:32 41.29010 2.13164 1903 ft 182 kts 97°
2026-05-07 10:32 41.28844 2.14936 2428 ft 203 kts 97°
2026-05-07 10:32 41.28678 2.16852 3219 ft 212 kts 96°
2026-05-07 10:33 41.28515 2.18836 4045 ft 219 kts 96°
2026-05-07 10:33 41.28372 2.20863 4946 ft 223 kts 91°
2026-05-07 10:33 41.28652 2.22903 5738 ft 227 kts 73°
2026-05-07 10:33 41.29084 2.24938 6584 ft 231 kts 73°
2026-05-07 10:34 41.29524 2.27004 7418 ft 234 kts 73°
2026-05-07 10:34 41.29967 2.29096 8239 ft 237 kts 73°
2026-05-07 10:34 41.30415 2.31220 9083 ft 240 kts 73°
2026-05-07 10:34 41.30869 2.33373 9938 ft 243 kts 73°
2026-05-07 10:35 41.31331 2.35566 10648 ft 252 kts 73°
2026-05-07 10:35 41.31828 2.37923 11029 ft 277 kts 74°
2026-05-07 10:35 41.32371 2.40501 11398 ft 302 kts 74°
2026-05-07 10:35 41.32961 2.43303 11738 ft 327 kts 74°
2026-05-07 10:36 41.33592 2.46308 12171 ft 345 kts 74°
2026-05-07 10:36 41.34234 2.49383 12907 ft 353 kts 74°
2026-05-07 10:36 41.34896 2.52553 13734 ft 357 kts 75°
2026-05-07 10:36 41.35564 2.55764 14451 ft 363 kts 75°
2026-05-07 10:37 41.36241 2.59031 15123 ft 369 kts 75°
2026-05-07 10:37 41.36929 2.62351 15782 ft 375 kts 75°
2026-05-07 10:37 41.37627 2.65728 16442 ft 381 kts 75°
2026-05-07 10:37 41.38338 2.69158 17100 ft 388 kts 75°
2026-05-07 10:38 41.39068 2.72693 17749 ft 394 kts 76°
2026-05-07 10:38 41.39788 2.76199 18379 ft 400 kts 76°
2026-05-07 10:38 41.40537 2.79848 18948 ft 406 kts 76°
2026-05-07 10:38 41.41283 2.83496 19534 ft 411 kts 76°
2026-05-07 10:39 41.42039 2.87190 20124 ft 416 kts 76°
2026-05-07 10:39 41.42804 2.90928 20712 ft 421 kts 76°
2026-05-07 10:39 41.43567 2.94663 21290 ft 425 kts 76°
2026-05-07 10:39 41.44345 2.98485 21876 ft 430 kts 76°
2026-05-07 10:40 41.45133 3.02356 22456 ft 435 kts 76°
2026-05-07 10:40 41.45930 3.06262 23028 ft 439 kts 77°
2026-05-07 10:40 41.46734 3.10216 23593 ft 444 kts 77°
2026-05-07 10:40 41.47540 3.14200 24069 ft 448 kts 77°
2026-05-07 10:41 41.48353 3.18231 24517 ft 452 kts 77°
2026-05-07 10:41 41.49170 3.22290 24974 ft 455 kts 77°
2026-05-07 10:41 41.49992 3.26380 25423 ft 459 kts 77°
2026-05-07 10:41 41.50820 3.30502 25877 ft 462 kts 77°
2026-05-07 10:42 41.51653 3.34658 26316 ft 465 kts 77°
2026-05-07 10:42 41.52491 3.38847 26756 ft 468 kts 77°
2026-05-07 10:42 41.53332 3.43064 27184 ft 472 kts 77°
2026-05-07 10:42 41.54179 3.47317 27614 ft 475 kts 77°
2026-05-07 10:43 41.55009 3.51608 28042 ft 478 kts 78°
2026-05-07 10:43 41.55770 3.55941 28471 ft 481 kts 80°
2026-05-07 10:43 41.56478 3.60319 28878 ft 484 kts 81°
2026-05-07 10:43 41.57163 3.64734 29293 ft 487 kts 81°
2026-05-07 10:44 41.57852 3.69188 29686 ft 491 kts 81°
2026-05-07 10:44 41.58549 3.73654 30072 ft 494 kts 81°
2026-05-07 10:44 41.59264 3.78161 30409 ft 497 kts 81°
2026-05-07 10:44 41.59991 3.82682 30738 ft 499 kts 80°
2026-05-07 10:45 41.60730 3.87233 31068 ft 502 kts 80°
2026-05-07 10:45 41.61690 3.91729 31391 ft 507 kts 69°
2026-05-07 10:45 41.63405 3.95850 31710 ft 510 kts 53°
2026-05-07 10:45 41.65621 3.99558 32083 ft 511 kts 50°
2026-05-07 10:46 41.67872 4.03233 32545 ft 509 kts 50°
2026-05-07 10:46 41.70123 4.06897 32999 ft 509 kts 50°
2026-05-07 10:46 41.72366 4.10550 33461 ft 508 kts 50°
2026-05-07 10:46 41.74608 4.14208 33886 ft 508 kts 50°
2026-05-07 10:47 41.76842 4.17865 34023 ft 505 kts 50°
2026-05-07 10:47 41.79034 4.21467 34037 ft 495 kts 50°
2026-05-07 10:47 41.83340 4.28569 34036 ft 489 kts 50°
2026-05-07 10:48 41.87625 4.35653 34033 ft 489 kts 50°
2026-05-07 10:48 41.91901 4.42738 34038 ft 489 kts 51°
2026-05-07 10:49 41.96183 4.49840 34035 ft 489 kts 51°
2026-05-07 10:49 42.00464 4.56953 34033 ft 489 kts 51°
2026-05-07 10:50 42.04735 4.64079 34024 ft 489 kts 51°
2026-05-07 10:50 42.08980 4.71165 34025 ft 489 kts 51°
2026-05-07 10:51 42.13252 4.78303 34020 ft 490 kts 51°
2026-05-07 10:51 42.17525 4.85461 34022 ft 490 kts 51°
2026-05-07 10:52 42.21786 4.92642 34017 ft 490 kts 51°
2026-05-07 10:52 42.26046 4.99841 34017 ft 491 kts 51°
2026-05-07 10:53 42.30312 5.07052 34019 ft 491 kts 51°
2026-05-07 10:53 42.34572 5.14276 34018 ft 492 kts 52°
2026-05-07 10:54 42.38837 5.21516 34014 ft 492 kts 52°
2026-05-07 10:54 42.43099 5.28774 34015 ft 492 kts 52°
2026-05-07 10:55 42.47355 5.36041 34013 ft 493 kts 52°
2026-05-07 10:55 42.51620 5.43325 34012 ft 493 kts 52°
2026-05-07 10:56 42.55883 5.50633 34015 ft 494 kts 52°
2026-05-07 10:56 42.60125 5.57950 34009 ft 493 kts 52°
2026-05-07 10:57 42.64344 5.65228 34001 ft 494 kts 52°
2026-05-07 10:57 42.68598 5.72572 34000 ft 494 kts 52°
2026-05-07 10:58 42.72841 5.79918 33999 ft 494 kts 53°
2026-05-07 10:58 42.77084 5.87278 33995 ft 494 kts 53°
2026-05-07 10:59 42.81320 5.94661 33990 ft 495 kts 53°
2026-05-07 10:59 42.85556 6.02063 33990 ft 495 kts 53°
2026-05-07 11:00 42.89791 6.09473 33982 ft 496 kts 53°
2026-05-07 11:00 42.94029 6.16899 33981 ft 496 kts 53°
2026-05-07 11:01 42.98269 6.24350 33976 ft 497 kts 53°
2026-05-07 11:01 43.02500 6.31817 33975 ft 497 kts 53°
2026-05-07 11:02 43.06742 6.39318 33997 ft 499 kts 54°
2026-05-07 11:02 43.10966 6.46785 33997 ft 500 kts 54°
2026-05-07 11:03 43.15201 6.54325 33976 ft 499 kts 54°
2026-05-07 11:03 43.19435 6.61863 33979 ft 499 kts 54°
2026-05-07 11:04 43.23659 6.69393 33972 ft 498 kts 54°
2026-05-07 11:04 43.27878 6.76944 33968 ft 499 kts 54°
2026-05-07 11:05 43.32086 6.84511 33984 ft 499 kts 54°
2026-05-07 11:05 43.36119 6.91775 33991 ft 498 kts 54°
2026-05-07 11:06 43.40318 6.99352 33995 ft 498 kts 54°
2026-05-07 11:06 43.44504 7.06933 33989 ft 498 kts 54°
2026-05-07 11:07 43.48695 7.14522 33989 ft 498 kts 54°
2026-05-07 11:07 43.52883 7.22121 33982 ft 498 kts 54°
2026-05-07 11:08 43.57062 7.29733 33988 ft 497 kts 54°
2026-05-07 11:08 43.61196 7.37300 33986 ft 497 kts 54°
2026-05-07 11:09 43.65346 7.44913 33987 ft 496 kts 54°
2026-05-07 11:09 43.69497 7.52532 33978 ft 496 kts 54°
2026-05-07 11:10 43.73635 7.60150 33975 ft 496 kts 54°
2026-05-07 11:10 43.77765 7.67778 33973 ft 495 kts 54°
2026-05-07 11:11 43.81892 7.75426 33981 ft 495 kts 54°
2026-05-07 11:11 43.85936 7.83135 33983 ft 495 kts 56°
2026-05-07 11:12 43.89876 7.90962 33988 ft 494 kts 57°
2026-05-07 11:12 43.93135 7.97457 33991 ft 494 kts 57°
2026-05-07 11:13 43.97080 8.05257 33993 ft 493 kts 56°
2026-05-07 11:13 44.01028 8.13041 33993 ft 493 kts 56°
2026-05-07 11:14 44.04809 8.20969 33992 ft 490 kts 65°
2026-05-07 11:14 44.07146 8.29754 33983 ft 483 kts 79°
2026-05-07 11:15 44.08925 8.38764 33978 ft 483 kts 79°
2026-05-07 11:15 44.10721 8.47785 33979 ft 484 kts 79°
2026-05-07 11:16 44.12504 8.56829 33983 ft 484 kts 79°
2026-05-07 11:16 44.14279 8.65877 33988 ft 485 kts 79°
2026-05-07 11:17 44.16052 8.74938 33994 ft 485 kts 79°
2026-05-07 11:17 44.17814 8.84008 33999 ft 486 kts 79°
2026-05-07 11:18 44.19563 8.93044 34005 ft 486 kts 79°
2026-05-07 11:18 44.21325 9.02138 34006 ft 486 kts 78°
2026-05-07 11:19 44.23074 9.11231 34001 ft 486 kts 79°
2026-05-07 11:19 44.24808 9.20342 33634 ft 485 kts 79°
2026-05-07 11:20 44.25672 9.24888 33298 ft 484 kts 78°
2026-05-07 11:20 44.26533 9.29417 32635 ft 483 kts 79°
2026-05-07 11:20 44.27390 9.33946 31989 ft 482 kts 79°
2026-05-07 11:20 44.28242 9.38457 31355 ft 480 kts 79°
2026-05-07 11:21 44.29092 9.42966 30742 ft 479 kts 79°
2026-05-07 11:21 44.29933 9.47465 30126 ft 479 kts 79°
2026-05-07 11:21 44.30771 9.51960 29457 ft 477 kts 79°
2026-05-07 11:21 44.31343 9.56465 28901 ft 466 kts 89°
2026-05-07 11:22 44.31391 9.60919 28381 ft 453 kts 99°
2026-05-07 11:22 44.30960 9.65199 27896 ft 439 kts 109°
2026-05-07 11:22 44.30172 9.69266 27415 ft 431 kts 112°
2026-05-07 11:22 44.29353 9.73281 26947 ft 427 kts 112°
2026-05-07 11:23 44.28544 9.77245 26496 ft 423 kts 112°
2026-05-07 11:23 44.27740 9.81175 26048 ft 420 kts 112°
2026-05-07 11:23 44.26943 9.85077 25604 ft 416 kts 111°
2026-05-07 11:23 44.26164 9.88893 25177 ft 413 kts 111°
2026-05-07 11:24 44.25379 9.92739 24735 ft 410 kts 111°
2026-05-07 11:24 44.24597 9.96556 24297 ft 407 kts 111°
2026-05-07 11:24 44.23817 10.00336 23841 ft 405 kts 111°
2026-05-07 11:24 44.23041 10.04090 23356 ft 402 kts 111°
2026-05-07 11:25 44.22269 10.07821 22879 ft 399 kts 111°
2026-05-07 11:25 44.21503 10.11522 22413 ft 395 kts 111°
2026-05-07 11:25 44.20744 10.15186 21950 ft 392 kts 111°
2026-05-07 11:25 44.19985 10.18827 21489 ft 389 kts 111°
2026-05-07 11:26 44.19226 10.22441 21027 ft 386 kts 111°
2026-05-07 11:26 44.18470 10.26020 20551 ft 384 kts 111°
2026-05-07 11:26 44.17722 10.29574 20090 ft 381 kts 111°
2026-05-07 11:26 44.16928 10.33080 19631 ft 376 kts 116°
2026-05-07 11:27 44.15775 10.36300 19183 ft 368 kts 127°
2026-05-07 11:27 44.14262 10.39139 18742 ft 362 kts 135°
2026-05-07 11:27 44.12677 10.41850 18305 ft 360 kts 134°
2026-05-07 11:27 44.11104 10.44550 17833 ft 358 kts 134°
2026-05-07 11:28 44.09552 10.47221 17357 ft 352 kts 134°
2026-05-07 11:28 44.08027 10.49850 17018 ft 342 kts 134°
2026-05-07 11:28 44.06563 10.52375 16735 ft 331 kts 134°
2026-05-07 11:28 44.05143 10.54868 16289 ft 327 kts 132°
2026-05-07 11:29 44.03780 10.57377 15832 ft 324 kts 131°
2026-05-07 11:29 44.02447 10.59890 15356 ft 321 kts 131°
2026-05-07 11:29 44.01154 10.62344 14901 ft 318 kts 130°
2026-05-07 11:29 43.99853 10.64809 14444 ft 315 kts 131°
2026-05-07 11:30 43.98537 10.67281 13973 ft 313 kts 131°
2026-05-07 11:30 43.97261 10.69660 13500 ft 310 kts 131°
2026-05-07 11:30 43.95976 10.72049 13000 ft 308 kts 131°
2026-05-07 11:30 43.94700 10.74417 12479 ft 305 kts 131°
2026-05-07 11:31 43.93430 10.76772 11951 ft 303 kts 131°
2026-05-07 11:31 43.92166 10.79110 11411 ft 302 kts 131°
2026-05-07 11:31 43.90893 10.81454 10973 ft 297 kts 133°
2026-05-07 11:31 43.89464 10.83308 10839 ft 275 kts 151°
2026-05-07 11:32 43.86006 10.84706 10168 ft 254 kts 186°
2026-05-07 11:32 43.84278 10.84354 9734 ft 250 kts 194°
2026-05-07 11:32 43.82579 10.83902 9379 ft 244 kts 194°
2026-05-07 11:33 43.80956 10.83480 9211 ft 231 kts 193°
2026-05-07 11:33 43.79388 10.83074 8849 ft 228 kts 193°
2026-05-07 11:33 43.77836 10.82672 8524 ft 226 kts 193°
2026-05-07 11:33 43.76295 10.82272 8202 ft 225 kts 193°
2026-05-07 11:34 43.74759 10.81873 7864 ft 224 kts 193°
2026-05-07 11:34 43.73237 10.81479 7551 ft 222 kts 193°
2026-05-07 11:34 43.71717 10.81086 7233 ft 221 kts 193°
2026-05-07 11:34 43.70204 10.80698 6921 ft 220 kts 193°
2026-05-07 11:35 43.68673 10.80702 6665 ft 220 kts 172°
2026-05-07 11:35 43.67252 10.81436 6440 ft 220 kts 152°
2026-05-07 11:35 43.66103 10.82827 6137 ft 223 kts 129°
2026-05-07 11:35 43.65523 10.84801 5964 ft 227 kts 98°
2026-05-07 11:36 43.65583 10.87012 5807 ft 232 kts 86°
2026-05-07 11:36 43.65734 10.89229 5541 ft 231 kts 86°
2026-05-07 11:36 43.65889 10.91426 5248 ft 229 kts 86°
2026-05-07 11:36 43.66040 10.93605 4941 ft 228 kts 86°
2026-05-07 11:37 43.66188 10.95790 4637 ft 228 kts 87°
2026-05-07 11:37 43.66544 10.97930 4291 ft 231 kts 65°
2026-05-07 11:37 43.67486 10.99717 3994 ft 231 kts 47°
2026-05-07 11:37 43.68565 11.01358 3681 ft 229 kts 47°
2026-05-07 11:38 43.69622 11.02975 3378 ft 224 kts 48°
2026-05-07 11:38 43.70652 11.04556 3121 ft 220 kts 49°
2026-05-07 11:38 43.71668 11.06118 2796 ft 217 kts 48°
2026-05-07 11:38 43.72661 11.07644 2506 ft 209 kts 49°
2026-05-07 11:39 43.73605 11.09096 2227 ft 196 kts 49°
2026-05-07 11:39 43.74469 11.10426 1991 ft 179 kts 48°
2026-05-07 11:39 43.75264 11.11645 1784 ft 164 kts 49°
2026-05-07 11:39 43.76008 11.12793 1490 ft 152 kts 48°
2026-05-07 11:40 43.76696 11.13858 1298 ft 144 kts 47°
2026-05-07 11:40 43.77345 11.14852 1115 ft 139 kts 47°
2026-05-07 11:40 43.77979 11.15839 929 ft 135 kts 46°
2026-05-07 11:40 43.78611 11.16808 750 ft 133 kts 47°
2026-05-07 11:41 43.79216 11.17743 577 ft 132 kts 47°
2026-05-07 11:41 43.79827 11.18684 381 ft 132 kts 47°
2026-05-07 11:41 43.80440 11.19638 208 ft 133 kts 47°
2026-05-07 11:41 43.81027 11.20542 125 ft 109 kts 49°
2026-05-07 11:42 43.81333 11.21016 132 ft 32 kts 48°
2026-05-07 11:42 43.81436 11.21174 133 ft 18 kts 48°
2026-05-07 11:42 43.81480 11.21295 133 ft 13 kts 67°
2026-05-07 11:42 43.81514 11.21302 135 ft 6 kts 270°
2026-05-07 11:43 43.81459 11.21211 132 ft 17 kts 228°
2026-05-07 11:43 43.81371 11.21078 132 ft 20 kts 229°
2026-05-07 11:43 43.81279 11.20935 133 ft 20 kts 229°
2026-05-07 11:43 43.81175 11.20777 128 ft 26 kts 226°
2026-05-07 11:44 43.81045 11.20572 126 ft 31 kts 229°
2026-05-07 11:44 43.80903 11.20353 127 ft 30 kts 228°
2026-05-07 11:44 43.80765 11.20140 133 ft 29 kts 227°
2026-05-07 11:44 43.80646 11.20024 132 ft 12 kts 193°
2026-05-07 11:45 43.80561 11.19998 133 ft 13 kts 192°
2026-05-07 11:45 43.80490 11.20034 133 ft 12 kts 147°
2026-05-07 11:45 43.80406 11.20038 130 ft 7 kts 188°
2026-05-07 11:45 43.80351 11.20015 129 ft 6 kts 197°
2026-05-07 11:46 43.80307 11.20026 125 ft 4 kts 158°
2026-05-07 11:46 43.80295 11.20032 123 ft 0 kts 159°